Location: Blangy-Tronville
(49.8790°N, 2.4226°E)
Time: 00:17:23
(UTC+00:00)

Cosmos 676 Rocket - Pass Details

Date: 18 November 2025
Orbit: 750 x 779 km, 74.0° (Epoch: 05 December)

Event Time Altitude Azimuth Distance (km) Brightness Sun altitude
Rises 17:57:22 0° 185° (S) 3,249 7.4 -18.2°
Reaches altitude 10° 17:59:48 10° 180° (S) 2,324 6.6 -18.6°
Maximum altitude 18:04:53 50° 106° (ESE) 990 4.2 -19.4°
Enters shadow 18:06:41 35° 55° (NE) 1,241 4.6 -19.7°
